EW2167 Weather Reports


Display with metric or nautical units.
time (UTC)temp
F
wind
direction
speed
MPH
gust
MPH
rain 1hr
in
rain 24hr
in
rain mn
in
humidity
%
barometer
mb
20260509143034 60 210 3.0 9.0 0.00 0.16 0.16 89 1008.8
20260509141532 59 219 3.0 10.0 0.00 0.16 0.16 93 1008.9
20260509140035 57 218 5.0 12.0 0.00 0.16 0.16 95 1008.7
20260509134534 57 220 1.0 8.0 0.00 0.16 0.16 95 1008.9
20260509133031 55 212 2.0 9.0 0.00 0.16 0.16 95 1008.7
20260509131533 55 0 2.0 7.0 0.00 0.16 0.16 95 1008.6
20260509130030 55 198 2.0 5.0 0.00 0.16 0.16 95 1008.7
20260509124532 55 0 1.0 5.0 0.00 0.16 0.16 95 1008.6
20260509123029 54 0 1.0 4.0 0.00 0.16 0.16 95 1008.5
20260509121534 54 211 1.0 4.0 0.00 0.16 0.16 95 1008.6
20260509120036 54 0 0.0 5.0 0.00 0.16 0.16 95 1008.8
20260509114534 54 215 1.0 4.0 0.00 0.16 0.16 95 1008.8
20260509113032 54 215 1.0 5.0 0.01 0.16 0.16 95 1008.6
20260509111529 53 0 0.0 4.0 0.01 0.16 0.16 95 1008.5
20260509110033 53 131 0.0 4.0 0.02 0.16 0.16 95 1008.3
20260509104533 53 0 0.0 2.0 0.04 0.16 0.16 95 1008.1
20260509103030 53 0 0.0 4.0 0.04 0.15 0.15 94 1008.2
20260509101530 53 0 0.0 2.0 0.05 0.15 0.15 94 1008.5
20260509100032 53 0 0.0 3.0 0.05 0.14 0.14 94 1008.9
20260509094529 53 0 0.0 2.0 0.03 0.12 0.12 94 1009.0
20260509093039 53 0 0.0 2.0 0.03 0.11 0.11 94 1009.0
20260509091532 53 0 0.0 0.0 0.03 0.10 0.10 94 1008.9
20260509090030 53 0 0.0 1.0 0.03 0.09 0.09 94 1008.9
20260509084533 53 0 0.0 1.0 0.04 0.09 0.09 94 1009.1
20260509083033 53 0 0.0 4.0 0.04 0.08 0.08 94 1009.3
20260509081532 53 0 0.0 0.0 0.04 0.07 0.07 94 1009.8
20260509080033 53 0 0.0 0.0 0.03 0.06 0.06 93 1009.6
20260509074534 53 0 0.0 0.0 0.03 0.05 0.05 94 1009.5
20260509073033 53 0 0.0 0.0 0.02 0.04 0.04 93 1009.4
20260509071532 54 0 0.0 0.0 0.02 0.03 0.03 93 1009.5
20260509070030 53 0 0.0 0.0 0.02 0.03 0.03 93 1009.7
20260509064530 54 0 0.0 0.0 0.02 0.02 0.02 92 1010.0
20260509063031 54 0 0.0 0.0 0.02 0.02 0.02 92 1010.3
20260509061532 54 0 0.0 0.0 0.01 0.01 0.01 92 1010.3
20260509060036 54 0 0.0 0.0 0.00 0.00 0.00 91 1010.4
20260509054531 54 0 0.0 0.0 0.00 0.00 0.00 91 1010.4
20260509053032 54 0 0.0 0.0 0.00 0.00 0.00 90 1010.1
20260509051528 54 0 0.0 0.0 0.00 0.00 0.00 90 1010.1
20260509050044 54 0 0.0 0.0 0.00 0.00 0.00 89 1010.0
20260509044530 55 0 0.0 4.0 0.00 0.00 0.00 89 1010.0
20260509043031 55 28 1.0 6.0 0.00 0.00 0.00 89 1010.2
20260509041531 55 0 0.0 0.0 0.00 0.00 0.00 88 1010.3
20260509040030 55 0 0.0 2.0 0.00 0.00 0.00 88 1010.4
20260509034532 55 23 0.0 3.0 0.00 0.00 0.00 87 1010.3
20260509033032 55 0 0.0 3.0 0.00 0.00 0.00 87 1010.3
20260509031533 56 22 1.0 8.0 0.00 0.00 0.00 85 1010.4
20260509030036 56 22 1.0 9.0 0.00 0.00 0.00 84 1010.8
20260509024536 56 21 2.0 9.0 0.00 0.00 0.00 83 1011.0
20260509023033 57 9 4.0 10.0 0.00 0.00 0.00 81 1011.0
20260509021532 58 14 4.0 15.0 0.00 0.00 0.00 77 1010.9
20260509020031 62 320 1.0 9.0 0.00 0.00 0.00 63 1010.6
20260509014533 62 238 3.0 13.0 0.00 0.00 0.00 61 1010.0
20260509013040 61 219 3.0 6.0 0.00 0.00 0.00 66 1009.8
20260509011532 60 211 2.0 5.0 0.00 0.00 0.00 73 1009.7
20260509010032 62 233 2.0 15.0 0.00 0.00 0.00 62 1009.8
20260509004541 62 211 2.0 8.0 0.00 0.00 0.00 62 1009.8
20260509003032 64 227 3.0 7.0 0.00 0.00 0.00 57 1009.6
20260509001531 64 232 2.0 7.0 0.00 0.00 0.00 55 1009.6
20260509000030 65 238 2.0 9.0 0.00 0.00 0.00 53 1009.8
20260508234534 65 214 4.0 8.0 0.00 0.00 0.00 53 1009.8
20260508233032 65 234 4.0 7.0 0.00 0.00 0.00 53 1009.5
20260508231532 65 216 3.0 6.0 0.00 0.00 0.00 54 1009.6
20260508230030 66 217 2.0 5.0 0.00 0.00 0.00 52 1009.7
20260508224531 66 215 3.0 7.0 0.00 0.00 0.00 51 1009.5
20260508223035 66 225 3.0 10.0 0.00 0.00 0.00 51 1009.5
20260508221536 67 218 4.0 14.0 0.00 0.00 0.00 48 1009.5
20260508220036 67 240 4.0 13.0 0.00 0.00 0.00 50 1009.4
20260508214530 68 234 6.0 16.0 0.00 0.00 0.00 46 1009.2
20260508213043 68 217 5.0 15.0 0.00 0.00 0.00 48 1009.3
20260508211534 68 243 6.0 13.0 0.00 0.00 0.00 47 1009.4
20260508210035 70 213 2.0 14.0 0.00 0.00 0.00 47 1009.6
20260508204533 71 162 6.0 16.0 0.00 0.00 0.00 44 1009.9
20260508203035 69 253 5.0 19.0 0.00 0.00 0.00 47 1010.1
20260508201536 68 241 6.0 14.0 0.00 0.00 0.00 47 1010.5
20260508200039 68 215 6.0 17.0 0.00 0.00 0.00 46 1010.7
20260508194534 68 223 3.0 14.0 0.00 0.00 0.00 46 1011.0
20260508193030 67 235 8.0 17.0 0.00 0.00 0.00 47 1011.2
20260508191534 67 227 5.0 20.0 0.00 0.00 0.00 45 1011.3
20260508190035 68 249 6.0 18.0 0.00 0.00 0.00 49 1011.4
20260508184534 70 230 4.0 21.0 0.00 0.00 0.00 45 1011.5
20260508183036 70 238 4.0 15.0 0.00 0.00 0.00 49 1011.7
20260508181552 67 254 6.0 16.0 0.00 0.00 0.00 48 1012.1
20260508180030 67 236 6.0 17.0 0.00 0.00 0.00 48 1012.5
20260508174531 69 251 11.0 20.0 0.00 0.00 0.00 45 1012.4
20260508173032 67 228 11.0 17.0 0.00 0.00 0.00 46 1012.7
20260508171531 69 234 6.0 16.0 0.00 0.00 0.00 50 1013.0
20260508170031 68 198 5.0 13.0 0.00 0.00 0.00 53 1013.2
20260508164538 66 210 6.0 19.0 0.00 0.00 0.00 50 1013.6
20260508163030 66 244 9.0 19.0 0.00 0.00 0.00 51 1013.7
20260508161535 67 250 6.0 19.0 0.00 0.00 0.00 51 1014.0
20260508160038 66 203 8.0 18.0 0.00 0.00 0.00 52 1014.0
20260508154537 65 269 8.0 21.0 0.00 0.00 0.00 53 1014.1
20260508153033 64 250 9.0 18.0 0.00 0.00 0.00 52 1014.2
20260508151530 64 240 6.0 16.0 0.00 0.00 0.00 55 1014.5
20260508150032 63 227 8.0 17.0 0.00 0.00 0.00 52 1014.7
20260508144531 63 244 7.0 18.0 0.00 0.00 0.00 53 1014.7